Theta_e
341 346 345 348 351 352 352 351 351 350 351 351 351 351 352 351 351 350 350 349 349 349 348 347 347 347 347 348 348 347 347 347 347 347 347 347 348 347 348 348 348 348 347 348 348 347 349 349 349 349 349 349 349 348 345 342 340 340 340 340 340 340 341 342 343 344 345 349 351 351 351 349 346 347 348 349 349 349 351 349 346 344 344 345 348
339 345 344 347 350 352 352 352 352 351 351 351 351 351 350 350 350 350 349 349 348 348 348 347 348 347 348 348 348 347 347 346 347 347 347 347 347 347 347 347 347 347 347 347 347 348 349 349 349 348 349 348 347 346 344 341 339 338 338 338 338 338 338 339 340 342 342 344 349 352 351 348 348 347 347 347 347 349 350 349 348 344 342 347 348
339 345 344 346 349 351 352 351 352 351 351 350 351 350 350 350 349 349 349 348 348 348 348 348 348 348 348 348 348 348 348 347 347 347 347 347 347 346 347 346 347 347 348 347 347 348 349 348 348 347 347 346 345 344 342 340 338 337 336 336 336 337 337 337 338 339 340 342 343 348 350 350 348 348 348 347 347 348 348 349 348 347 344 348 347
338 344 344 345 348 349 352 352 351 352 351 351 351 351 351 350 349 348 348 348 348 347 347 348 348 348 348 348 348 348 348 347 347 347 347 346 347 346 346 347 347 347 347 348 348 348 347 347 347 346 345 344 343 342 340 339 337 336 335 333 334 334 335 336 337 337 339 340 341 345 345 345 346 347 348 348 348 347 347 347 348 348 348 347 347
338 344 344 345 347 348 351 351 352 352 352 351 351 350 349 349 349 348 348 348 348 348 347 347 348 348 347 348 348 348 347 346 346 346 346 346 346 347 346 346 346 346 347 347 348 347 347 346 345 344 343 341 340 340 339 337 336 335 334 333 332 331 332 334 336 336 338 339 340 340 340 346 344 348 347 348 348 346 345 346 347 347 346 346 347
335 345 344 344 347 347 348 352 352 352 352 352 351 350 350 349 348 348 348 348 348 348 347 348 348 348 348 348 348 348 348 347 346 346 346 346 345 346 347 346 346 347 347 347 347 346 345 344 344 342 341 340 339 338 337 336 335 333 332 331 330 329 330 330 333 334 337 340 336 333 345 344 344 345 346 348 347 345 345 344 345 346 346 345 345
336 345 343 343 346 347 346 351 352 352 352 351 351 350 349 349 348 348 348 348 348 348 348 348 348 348 348 348 348 348 347 347 347 347 346 345 345 346 346 346 346 346 346 347 346 345 344 343 342 341 339 338 337 336 335 334 333 332 330 329 328 327 329 328 328 332 334 331 327 332 335 344 344 345 347 347 348 347 345 344 345 346 346 345 344
337 344 342 343 345 346 346 350 352 352 352 352 351 351 349 349 348 348 348 348 348 348 348 348 348 348 347 348 348 348 348 347 347 346 345 345 345 345 346 346 346 346 346 346 345 344 342 341 340 339 338 336 335 334 334 332 331 330 328 327 325 325 324 325 326 329 332 326 330 333 333 338 344 345 348 347 347 347 346 346 345 345 345 344 345
338 340 343 343 344 344 345 349 352 352 351 351 351 351 349 349 348 348 348 348 348 348 348 348 348 348 348 348 348 348 347 347 347 346 345 345 344 345 346 346 346 345 345 344 343 342 341 339 338 337 336 335 333 332 331 330 329 327 326 325 323 322 322 324 326 330 324 328 330 330 332 333 339 342 346 347 346 347 346 346 346 344 345 344 345
338 339 343 342 344 342 346 348 352 352 351 351 351 350 350 349 349 348 348 349 348 349 348 348 348 348 348 348 348 348 348 347 347 345 345 344 343 345 345 345 344 344 344 343 342 340 338 337 336 335 335 334 331 329 328 328 326 324 323 322 321 320 321 324 326 329 321 325 330 331 328 339 340 342 345 347 346 347 345 344 345 344 343 344 343
339 339 340 342 345 342 347 350 351 351 351 351 351 350 349 349 349 348 348 348 348 349 348 348 348 348 348 348 348 348 347 347 346 344 343 343 343 342 342 343 342 342 342 341 340 338 337 335 335 333 333 332 329 327 326 325 325 324 323 321 320 320 321 324 328 317 321 326 328 329 333 341 340 339 343 344 345 345 344 344 345 344 343 343 342
338 338 338 340 341 341 347 348 350 351 351 351 351 350 350 349 349 349 349 348 349 349 348 348 348 348 348 348 348 347 347 346 345 343 342 342 342 339 338 340 340 340 338 338 337 337 334 334 333 333 331 330 327 325 324 324 323 322 321 320 319 319 322 326 321 319 321 324 326 330 330 333 334 338 342 342 343 344 343 343 344 344 344 343 343
336 336 338 343 341 340 345 347 348 350 351 351 351 351 350 349 349 349 348 348 348 348 348 348 348 349 348 348 348 347 347 345 343 342 342 341 339 339 338 339 337 338 337 336 336 334 333 332 332 332 331 328 326 324 323 323 322 321 320 319 319 319 321 324 319 320 321 322 325 327 329 329 331 339 339 340 341 341 343 342 343 344 344 344 343
335 334 337 343 341 339 340 343 347 349 350 350 351 350 350 350 349 349 348 348 348 349 348 348 348 348 348 348 348 347 346 345 343 341 340 339 338 337 338 337 338 336 336 335 334 331 331 331 331 331 329 327 325 324 323 322 321 320 319 318 319 320 321 322 322 318 320 321 323 327 327 328 331 337 337 338 339 340 340 340 341 342 342 342 342
333 335 336 340 341 340 336 340 343 345 347 348 349 350 350 350 349 349 348 349 349 349 348 348 348 348 348 348 347 347 346 344 343 341 340 338 338 337 337 337 337 335 334 332 332 331 330 331 330 330 328 325 324 323 322 321 320 319 318 317 317 319 323 315 316 315 319 322 321 326 325 326 334 335 334 335 336 337 336 337 338 339 339 340 340
336 336 336 336 341 340 337 337 337 338 343 345 346 347 348 348 348 349 348 348 348 348 348 348 348 348 348 347 347 347 345 344 343 341 339 338 338 336 336 336 336 336 334 331 330 329 330 330 329 329 326 325 324 323 321 320 318 317 317 316 317 318 320 319 313 314 315 318 320 324 323 325 333 334 332 332 334 333 334 335 335 336 337 337 337
337 335 334 334 338 340 340 338 336 333 334 337 340 342 344 345 346 347 347 347 347 348 348 348 348 348 348 348 347 345 344 344 342 340 338 337 336 335 334 335 335 332 330 330 329 329 329 329 329 327 325 324 323 322 320 318 317 315 315 315 315 316 318 318 314 313 313 316 321 322 321 323 330 332 332 331 330 331 332 333 333 334 335 335 335
333 335 333 334 335 339 340 340 339 336 338 334 333 338 340 343 343 343 344 344 345 346 347 347 347 346 345 344 343 341 342 343 340 339 337 336 335 332 332 333 332 332 331 330 329 329 328 328 327 325 325 324 322 321 319 317 315 314 314 313 313 315 315 317 309 312 312 319 319 320 319 328 330 330 331 330 330 330 329 330 331 332 332 333 333
331 334 334 333 335 335 338 339 339 339 340 339 339 336 334 338 340 340 341 342 343 344 345 343 343 343 342 340 337 335 335 336 338 337 335 334 332 333 332 331 331 331 330 329 329 328 328 327 326 325 324 323 321 319 317 315 313 312 311 311 312 313 315 310 307 308 311 312 317 317 319 327 328 329 330 329 330 329 330 329 329 330 331 331 331
328 330 333 333 333 335 334 336 339 340 340 340 340 340 332 331 335 337 338 340 341 341 341 339 338 336 336 334 330 329 327 330 328 329 331 331 329 325 330 331 330 331 330 329 329 328 327 327 326 325 324 322 321 318 315 313 311 310 309 309 313 312 305 303 304 305 308 312 316 315 323 326 328 328 328 328 328 328 327 328 328 328 329 330 329
329 329 330 331 332 334 334 334 336 338 339 339 339 339 338 330 331 332 333 335 336 337 338 332 329 328 328 326 324 330 328 327 325 326 324 324 322 322 329 331 330 332 332 330 328 328 327 326 326 325 324 322 318 315 313 311 310 308 309 308 311 305 302 303 303 305 307 312 314 315 323 324 327 328 327 327 327 326 325 326 327 326 328 328 327
324 326 329 330 331 332 333 333 333 335 336 337 338 338 338 333 336 335 333 333 330 329 332 335 328 332 324 326 329 330 330 326 325 324 323 322 321 321 324 329 330 330 331 330 328 328 326 325 325 325 323 319 315 306 307 311 309 309 307 311 302 302 301 301 301 303 307 311 311 317 323 324 326 326 326 325 325 325 324 324 325 326 326 326 326
321 324 327 329 331 332 333 333 333 334 334 335 336 335 335 335 337 337 336 330 331 330 334 332 333 333 329 327 327 329 329 326 325 323 323 320 320 320 323 326 329 328 329 329 328 327 326 325 324 323 320 316 309 302 300 299 300 307 308 304 300 300 301 301 301 303 305 309 307 318 321 323 324 325 325 324 324 324 325 324 325 325 324 324 325
320 324 325 329 330 331 332 333 333 333 333 333 333 332 332 335 337 337 337 335 335 333 334 333 333 332 330 328 327 328 327 326 323 321 322 321 319 319 321 323 324 324 323 324 326 326 325 324 324 322 317 311 306 305 301 299 296 296 300 300 301 301 300 300 300 302 304 309 308 316 319 322 323 324 324 324 323 322 322 324 324 324 324 324 325
320 324 325 327 329 330 331 332 332 333 332 332 331 331 330 333 336 336 336 335 335 334 334 334 333 333 330 328 328 327 327 325 323 321 321 321 318 318 319 319 319 317 318 316 317 318 319 315 314 311 304 303 303 302 303 301 300 301 299 299 300 299 299 300 300 300 304 304 306 314 317 320 323 324 324 323 322 320 321 323 323 323 323 323 324
320 320 324 326 328 329 330 331 332 332 332 332 331 330 330 328 332 334 333 332 333 333 333 333 333 333 331 328 327 327 325 324 321 321 321 320 319 318 318 318 319 317 318 316 315 315 313 310 308 306 303 302 301 300 300 299 298 298 299 299 298 298 299 299 300 299 303 304 304 313 315 318 321 324 324 323 323 321 322 323 323 323 323 322 322
310 317 323 325 327 328 329 330 330 331 331 332 331 330 329 329 328 329 331 330 330 331 331 331 332 331 330 328 326 325 324 322 321 320 319 319 318 318 317 316 317 317 316 315 315 314 312 308 305 304 301 300 300 301 301 300 299 298 299 299 298 298 298 298 298 299 301 303 307 312 314 317 320 322 323 322 323 322 322 323 322 323 322 322 321
309 311 318 322 325 327 328 329 330 330 331 332 331 330 329 329 328 326 327 327 327 327 327 327 328 329 329 327 325 325 323 322 321 320 318 318 317 317 317 316 316 316 316 315 314 312 311 306 302 301 300 300 300 299 299 300 299 299 298 298 298 297 297 297 297 298 300 303 303 308 313 317 320 321 322 322 323 323 322 321 321 321 321 322 321
307 311 315 318 323 326 327 328 329 329 331 332 331 330 329 329 328 327 326 325 327 327 326 327 326 326 327 327 324 324 322 321 320 319 318 317 316 316 316 316 316 315 316 313 314 311 308 302 300 300 300 299 298 298 298 298 297 297 299 298 297 297 297 298 297 298 298 301 302 304 312 315 318 320 321 321 321 322 321 321 321 321 321 321 321
308 309 312 315 317 325 326 327 328 329 329 330 330 329 328 328 328 328 327 325 326 327 326 326 326 326 325 326 325 324 322 321 319 318 318 316 316 316 315 315 315 314 314 313 309 307 302 299 299 300 299 298 298 298 297 296 296 297 297 297 297 297 296 297 297 297 297 300 302 302 310 313 316 320 320 319 320 320 320 320 320 320 320 321 320
307 308 310 313 315 318 323 324 326 325 328 328 329 329 328 327 327 327 327 325 326 326 325 325 325 325 325 326 325 324 322 321 319 319 317 316 315 315 314 314 314 314 313 311 308 304 300 299 300 298 298 297 297 296 296 296 296 297 297 296 296 297 296 296 297 296 297 299 302 302 304 310 313 316 320 320 319 319 319 319 319 320 320 320 320
309 308 309 311 315 315 318 322 324 324 325 326 326 327 327 327 326 327 327 326 326 325 324 325 323 324 324 326 325 323 321 321 320 319 317 315 314 314 313 313 313 310 311 306 304 302 299 299 298 298 297 297 296 295 297 295 295 296 296 296 295 296 295 296 296 296 297 298 300 302 303 304 309 311 314 318 321 320 318 318 318 319 319 319 319
309 310 310 311 311 313 314 318 321 322 323 324 325 325 325 326 325 325 325 326 325 325 324 324 324 324 323 324 324 323 321 321 319 319 315 314 312 313 311 311 311 309 308 303 302 299 298 298 299 299 297 297 296 295 297 295 294 295 296 295 295 295 295 296 296 296 297 297 297 301 305 303 301 305 309 312 316 320 319 317 318 319 320 318 317
306 305 311 311 312 316 319 318 318 320 321 322 323 322 323 323 324 323 323 324 324 324 324 324 323 322 322 323 323 323 322 321 319 317 315 313 312 311 310 309 307 306 305 302 300 298 297 298 298 297 299 296 295 295 293 294 293 293 294 294 295 294 294 295 295 296 296 296 296 299 302 303 302 301 302 306 309 313 318 318 317 318 319 317 317
305 305 305 309 311 313 317 316 316 316 318 319 319 320 321 321 321 321 322 322 323 323 322 323 322 322 322 321 322 322 321 320 318 316 313 312 311 309 308 307 307 305 303 300 299 298 298 298 296 296 295 294 294 295 294 294 293 294 294 294 295 294 294 296 296 295 295 295 295 296 298 299 301 301 301 298 301 307 312 316 318 319 319 319 316
303 303 304 305 309 309 314 314 315 316 317 317 317 318 320 320 320 319 321 320 320 320 320 320 320 320 320 319 320 321 320 320 317 315 313 311 310 308 308 306 306 303 301 299 299 297 296 297 296 295 293 293 293 292 293 293 293 293 293 293 294 294 293 294 295 294 294 294 295 295 295 294 294 294 298 296 297 301 308 310 313 316 317 318 318
302 302 302 303 305 307 310 313 313 315 315 318 317 317 318 319 320 319 320 319 319 319 320 319 318 318 316 316 317 319 318 319 316 314 312 310 308 307 307 306 304 302 300 299 297 296 296 296 294 294 293 292 292 291 292 293 293 293 293 293 293 293 294 294 294 293 296 294 293 293 293 291 292 299 293 294 296 295 303 307 309 310 311 314 316
301 301 302 302 303 305 307 311 311 312 312 314 316 315 316 316 317 317 317 317 318 318 319 318 318 317 315 314 315 316 315 316 314 312 311 310 307 306 305 304 302 301 299 298 297 296 295 295 293 293 293 293 291 291 292 293 295 294 293 292 292 292 293 293 293 295 293 293 292 292 292 292 293 293 293 293 293 294 295 301 305 305 306 310 314
301 301 301 302 302 303 305 308 308 309 310 312 314 314 315 315 315 315 314 314 315 316 316 317 316 315 314 313 314 315 312 313 312 310 310 308 305 304 304 302 301 300 299 297 296 295 295 294 293 293 293 293 292 292 292 293 294 294 293 292 292 292 292 292 292 292 292 292 292 293 294 292 292 292 292 291 292 292 293 294 294 294 299 307 311
299 300 300 301 301 302 303 304 307 306 308 310 313 311 312 310 310 311 311 311 311 311 313 313 313 312 313 313 313 312 312 312 310 308 307 306 304 302 301 301 300 299 298 296 295 294 294 294 293 293 292 292 293 293 293 293 292 291 291 291 291 291 292 291 292 292 292 291 291 291 291 291 291 291 291 291 292 291 291 291 294 295 296 301 305
298 298 299 300 300 301 301 301 304 305 305 307 309 308 307 308 308 309 309 310 309 310 310 310 311 310 309 309 309 309 310 310 310 309 309 306 305 301 300 298 298 298 297 296 295 294 294 294 293 293 292 291 291 292 293 293 291 288 290 289 289 290 291 292 292 291 291 291 290 290 290 290 289 290 290 291 291 291 291 291 291 293 295 295 297
296 297 297 298 299 300 300 301 303 304 304 304 305 307 308 308 308 308 308 308 307 307 307 308 309 309 308 307 307 306 307 307 307 307 307 306 304 301 299 298 297 297 296 295 294 294 294 294 294 291 292 291 290 292 293 291 288 287 286 286 287 288 290 290 290 290 290 290 290 290 290 290 289 289 290 291 290 290 290 290 291 294 295 294 292
295 295 296 297 297 298 299 300 301 301 302 302 303 304 307 308 307 306 306 305 307 307 306 306 306 306 305 304 305 305 304 304 304 304 306 306 304 301 300 298 297 296 295 295 294 293 293 293 293 292 291 290 291 293 292 292 287 287 287 285 283 284 287 286 288 289 290 289 289 289 290 289 290 289 290 290 290 290 290 290 291 291 292 292 290
294 294 295 295 296 296 298 299 299 300 300 301 301 302 306 306 305 305 305 303 301 303 304 303 303 303 302 303 303 303 303 302 303 303 303 304 303 302 300 298 297 296 296 295 293 293 293 293 293 291 292 290 290 292 292 291 289 289 284 285 284 284 283 283 285 287 289 288 289 289 289 289 289 289 289 289 289 290 289 291 291 291 291 292 291
294 294 294 294 295 295 296 297 298 298 299 300 301 301 302 302 303 303 302 302 302 301 300 300 300 301 300 301 302 303 303 302 301 301 301 301 301 301 299 297 296 296 295 295 294 294 294 294 294 292 291 291 289 290 291 291 290 292 289 286 284 284 284 283 285 284 286 287 287 288 288 288 288 288 288 288 289 289 289 290 290 291 291 292 291
293 294 294 295 294 294 295 296 296 297 298 299 300 300 300 300 300 299 298 298 297 298 297 298 299 299 299 300 301 301 302 301 301 300 300 299 300 300 299 297 295 295 295 295 294 293 293 293 293 293 291 290 290 289 290 291 290 291 290 289 287 283 284 284 284 280 285 286 287 287 287 287 287 288 288 288 288 288 290 290 290 290 291 291 290
292 293 294 294 294 294 294 295 295 295 297 298 299 299 298 299 299 299 298 298 297 298 299 299 299 299 299 299 299 300 300 300 299 300 299 298 298 298 298 297 296 295 294 294 293 293 294 294 293 293 292 292 289 289 290 290 290 290 293 293 290 289 289 285 282 281 279 282 285 285 286 287 287 287 288 287 288 287 288 289 289 290 290 291 290
292 292 293 294 294 294 294 294 294 294 295 296 297 298 297 297 297 297 297 297 297 297 298 298 298 297 297 298 298 298 298 299 298 298 298 298 297 297 297 296 296 294 294 293 293 292 293 294 293 293 292 292 291 290 289 290 289 289 291 292 291 291 291 289 286 285 282 280 281 285 286 286 286 287 287 287 288 287 287 288 288 289 289 290 289
292 291 292 292 293 293 294 294 294 294 294 294 295 296 296 296 296 296 295 296 296 297 297 298 297 296 297 296 297 297 296 297 297 297 297 297 296 296 295 295 295 294 293 294 293 292 292 292 292 292 292 292 291 291 289 289 289 289 289 289 289 290 288 288 291 288 281 280 280 282 282 285 286 286 287 287 288 288 288 288 288 289 289 289 289
291 292 291 291 292 292 292 293 293 293 294 294 294 294 294 295 294 294 294 294 295 296 296 296 296 296 295 296 296 296 295 295 295 296 296 296 296 295 295 295 295 295 293 292 291 292 292 291 292 292 292 291 291 291 290 289 290 289 289 291 290 288 287 287 288 289 288 285 283 282 283 283 282 284 286 286 287 287 288 288 288 289 289 289 289
290 290 290 290 290 291 291 291 291 293 293 293 293 293 293 293 293 293 293 293 293 294 293 294 294 294 295 295 294 295 295 294 294 294 294 294 294 294 294 294 294 294 294 293 292 292 292 291 292 291 291 291 290 290 291 289 289 289 288 289 290 291 290 288 288 289 290 286 282 283 283 284 284 282 285 286 286 287 287 287 288 288 288 289 289
Wind_Speed
3 9 10 15 16 16 15 16 14 14 14 13 12 12 12 12 11 11 11 10 10 10 9 9 9 9 10 10 9 9 8 8 8 8 7 7 7 7 6 6 7 6 6 6 6 7 7 7 8 10 10 12 12 12 11 11 12 12 12 12 12 12 11 11 10 9 8 8 7 9 9 9 9 9 10 10 12 13 12 14 11 7 5 6 10
6 8 10 12 16 16 16 16 15 15 14 14 13 12 12 12 12 11 10 10 10 10 10 10 10 10 10 10 9 9 8 8 8 7 6 6 6 5 5 5 5 5 5 6 5 6 8 9 9 10 11 12 12 10 10 10 11 11 11 11 11 11 11 10 9 9 9 8 8 9 7 10 9 9 10 11 12 13 13 12 12 5 3 9 11
6 10 9 12 16 16 15 16 16 15 15 14 13 12 12 11 11 10 10 10 9 10 10 11 11 11 10 9 9 9 9 8 7 6 6 6 5 4 4 4 4 5 6 5 7 8 9 9 10 11 12 11 10 9 9 10 10 10 10 10 10 10 10 10 10 9 8 8 8 5 7 8 9 9 9 11 12 13 13 12 10 8 6 11 10
6 9 9 12 16 16 15 15 15 15 14 13 11 10 10 11 11 11 10 10 10 10 11 11 11 11 10 9 9 8 8 8 8 7 6 5 5 4 3 3 3 4 5 6 9 10 10 10 11 10 11 10 8 8 9 9 9 9 9 9 9 9 9 9 9 9 8 6 6 4 2 4 5 8 9 10 11 12 11 10 10 11 11 10 11
5 9 9 10 10 14 16 15 14 14 13 13 11 10 11 11 10 11 11 10 11 11 11 11 11 10 9 9 9 8 8 7 7 7 6 6 5 4 3 3 3 5 6 7 9 9 10 10 9 9 9 8 7 7 8 8 9 8 9 8 9 8 8 8 8 8 9 8 6 2 3 3 3 6 8 9 9 10 9 9 9 10 10 11 11
5 9 10 10 9 11 15 16 15 14 13 13 12 11 11 11 11 11 11 11 11 11 11 11 10 9 9 8 8 8 9 8 8 7 6 6 5 5 4 4 4 6 6 8 8 9 9 9 9 8 7 6 6 7 8 8 8 8 8 8 7 8 8 8 8 8 8 9 9 2 5 4 4 3 6 8 9 8 9 9 8 8 9 10 10
5 8 9 10 9 10 14 16 16 15 14 14 12 12 13 12 11 11 11 11 11 11 11 11 10 9 9 8 8 8 8 9 9 8 8 7 6 5 5 5 5 6 8 8 8 8 8 9 7 6 5 5 6 6 7 7 7 8 7 7 7 7 6 7 7 7 9 7 4 4 2 6 4 3 6 5 7 8 8 8 8 9 9 9 10
4 6 9 8 8 12 15 16 15 15 15 14 13 12 13 12 12 12 11 11 10 11 10 10 10 9 9 9 9 9 8 9 9 9 8 8 7 6 5 5 6 8 8 8 8 8 8 8 6 5 4 4 5 6 6 6 7 7 7 7 7 7 6 6 6 7 9 4 4 4 5 3 3 3 5 4 5 7 7 7 7 9 9 9 7
4 4 9 8 7 15 14 15 16 16 16 14 14 12 13 14 13 12 12 11 10 10 10 10 10 10 10 10 9 9 10 9 10 10 9 8 8 7 7 7 7 8 8 8 7 7 7 5 4 4 4 3 4 5 6 6 7 7 7 7 7 7 6 6 6 7 5 1 3 4 4 4 4 4 6 6 8 8 10 8 6 8 10 10 8
4 4 7 7 7 17 14 13 15 16 17 16 15 14 15 14 13 14 13 12 11 11 10 11 11 10 10 10 10 11 11 11 11 10 10 8 9 8 9 8 8 7 7 7 6 6 4 3 3 3 3 3 4 5 5 6 6 7 7 7 7 7 6 7 8 6 3 4 4 4 3 5 4 4 7 8 10 11 9 6 6 4 4 6 7
6 4 4 7 11 17 16 13 14 14 16 15 15 16 16 15 15 15 14 13 12 11 11 11 11 11 11 10 9 10 11 11 12 10 10 9 8 7 5 8 7 6 5 4 4 4 2 1 2 1 3 3 5 5 6 6 6 7 7 8 8 7 7 7 7 3 4 5 5 4 6 10 4 3 7 9 11 11 9 6 4 3 4 5 7
6 4 3 4 14 18 18 15 14 14 14 14 15 16 16 16 15 15 15 14 13 12 12 12 12 11 11 10 10 11 11 12 11 10 9 9 9 6 2 4 6 6 3 2 1 3 2 1 2 3 2 3 5 6 6 6 6 7 8 8 8 7 8 9 4 4 4 4 4 4 4 6 5 4 7 7 9 10 11 9 6 5 4 4 8
5 5 3 6 10 16 17 17 14 14 14 14 15 15 16 16 16 16 15 14 14 13 13 12 11 10 10 11 12 12 13 12 11 11 10 9 6 5 4 2 2 4 3 1 2 3 4 2 3 3 3 4 5 6 6 6 7 7 7 7 7 7 7 8 4 5 4 4 3 5 6 5 4 7 6 6 7 9 11 10 9 7 6 5 7
6 5 4 6 6 12 16 16 15 14 13 13 14 14 15 14 15 15 15 14 14 13 14 13 11 10 11 12 12 13 12 12 12 10 9 9 8 5 4 2 5 3 4 3 2 2 1 3 3 4 4 5 5 6 6 6 7 7 7 7 7 7 8 4 5 4 4 3 3 5 6 5 5 7 6 5 7 7 8 8 9 9 8 8 7
5 5 4 6 7 8 12 14 14 14 13 12 13 13 14 14 14 13 15 13 13 13 13 13 12 12 12 12 13 13 13 12 12 11 9 8 7 6 3 3 3 4 3 4 4 2 2 3 3 4 6 5 5 6 6 6 7 7 7 7 7 7 7 4 2 3 4 4 4 5 6 5 10 9 4 5 5 6 6 6 7 8 9 8 8
4 5 4 4 7 7 7 10 13 12 12 12 12 12 13 12 12 12 13 11 12 13 13 13 13 12 12 13 14 14 14 13 13 12 10 9 8 7 6 3 6 6 5 4 3 3 3 2 3 6 5 5 6 6 6 6 6 7 7 7 7 7 8 6 5 4 4 4 4 6 6 5 12 8 4 5 5 4 5 5 5 4 6 7 7
3 5 4 4 7 8 8 7 9 12 10 11 11 12 12 12 11 11 11 11 11 11 11 11 12 12 12 13 12 12 12 10 13 13 11 10 9 8 7 6 9 9 4 5 5 5 4 3 4 5 4 5 6 6 6 7 7 7 7 7 7 8 8 7 5 4 3 3 5 6 6 5 8 8 5 5 4 4 3 4 3 4 4 5 5
3 5 4 4 5 8 7 7 8 8 7 8 10 12 12 12 11 11 10 10 10 10 10 11 11 12 12 12 12 11 12 11 13 12 11 10 9 8 7 7 7 7 6 6 5 6 4 4 5 4 5 5 5 6 6 7 7 7 7 8 7 7 7 8 4 3 3 4 6 5 6 8 8 6 6 5 4 4 2 3 4 3 3 3 3
3 5 4 4 5 5 8 8 8 8 8 7 6 8 12 12 12 12 11 11 10 10 10 10 10 11 11 11 10 9 10 11 13 11 10 10 9 8 8 7 8 8 8 7 7 7 6 5 6 5 6 6 6 6 6 6 7 7 7 6 6 6 8 5 4 3 4 6 6 6 6 10 6 6 6 5 5 4 4 3 3 3 3 3 2
2 4 5 5 5 6 5 8 9 9 9 8 8 8 10 12 12 11 12 11 11 11 10 10 11 10 10 10 8 7 8 8 11 9 11 11 11 8 7 6 8 8 9 9 9 7 8 7 7 7 8 7 7 7 7 6 6 5 5 4 5 6 4 4 3 4 5 6 6 5 7 10 7 5 5 5 4 4 4 3 2 3 3 3 3
4 4 5 6 6 6 6 7 8 10 10 10 8 9 9 12 10 11 12 12 11 11 10 11 10 8 7 8 8 5 4 4 6 5 10 8 11 11 9 6 7 6 7 9 10 9 9 9 9 9 9 9 9 8 7 6 5 4 2 2 4 2 3 4 4 4 4 6 5 5 10 9 8 5 5 4 4 4 3 3 2 1 3 3 3
6 6 6 6 7 7 8 7 8 11 10 9 7 7 7 12 9 7 7 9 9 9 8 7 7 5 7 7 6 6 5 5 5 6 5 7 9 11 10 7 7 3 5 8 10 10 10 10 10 10 11 11 10 5 4 4 4 3 2 2 2 0 3 3 4 4 5 5 4 6 10 8 7 4 3 4 4 4 3 3 2 2 1 1 1
6 6 7 8 7 7 6 8 7 9 10 9 7 7 8 8 9 8 7 8 8 8 7 7 6 6 7 6 6 6 6 6 6 6 6 9 8 10 10 9 6 4 5 7 9 10 11 11 11 10 11 11 6 5 4 3 2 4 4 2 1 4 2 2 4 5 4 4 4 7 8 7 6 5 2 2 3 2 2 3 2 2 2 2 1
8 9 9 8 9 9 10 10 8 8 9 8 7 7 7 8 8 8 8 8 8 7 7 7 6 6 7 7 6 6 6 6 9 13 10 7 8 10 11 10 7 6 8 6 8 9 11 11 10 9 7 4 4 5 5 5 5 4 4 3 3 2 2 3 3 4 4 4 3 7 7 7 5 3 2 1 2 1 1 1 2 1 2 1 2
9 8 7 9 11 10 9 9 9 8 8 8 8 7 6 7 8 8 8 8 8 7 7 7 7 7 7 7 7 5 6 6 7 6 7 7 6 6 6 6 5 5 8 4 5 4 5 5 4 5 4 4 4 5 6 6 6 5 4 5 3 3 3 3 3 4 6 4 3 6 6 6 6 3 2 2 2 1 0 1 1 1 2 1 2
7 7 9 9 10 11 10 9 9 8 9 8 8 7 8 6 8 8 8 7 7 8 7 7 7 8 6 7 7 7 6 6 6 7 7 7 7 6 7 6 6 6 5 6 6 5 5 6 5 4 5 5 4 3 3 4 4 3 4 3 3 3 4 4 3 3 6 5 3 5 6 6 6 5 2 1 3 2 2 3 3 3 3 2 2
6 8 8 7 9 9 9 8 9 9 10 8 7 7 8 7 7 7 8 8 7 8 8 8 8 6 6 6 7 7 6 6 7 7 6 6 7 7 7 6 6 6 6 7 6 6 6 6 6 6 6 5 3 3 3 3 4 5 4 3 3 4 4 4 4 4 6 5 3 6 6 6 6 6 3 2 2 3 4 4 3 4 3 3 3
5 6 7 7 8 10 10 9 9 9 8 10 9 8 7 8 7 8 8 9 8 7 7 7 7 8 6 6 7 7 7 6 7 7 6 6 7 7 7 6 6 7 6 6 6 6 6 6 6 6 5 4 4 4 3 3 4 4 4 4 3 4 4 5 4 2 4 5 3 4 7 7 8 6 4 1 3 4 5 3 3 2 4 4 3
5 6 7 6 8 10 11 11 10 11 9 9 10 9 8 8 7 7 7 7 7 7 7 7 7 7 7 7 7 7 7 6 7 7 6 6 6 7 7 7 7 7 7 6 6 7 7 7 7 7 5 5 4 4 4 4 4 4 5 4 4 4 4 5 4 3 3 5 4 4 7 8 8 7 4 2 2 4 4 4 4 5 4 3 4
6 5 4 5 5 8 11 11 11 11 10 9 9 8 9 9 10 9 7 7 7 7 6 7 7 7 7 7 8 7 7 7 7 7 7 6 6 7 7 7 7 7 8 8 6 7 7 7 6 6 6 6 5 4 4 4 4 4 4 4 4 4 4 4 3 2 3 5 5 3 7 8 8 9 7 3 1 1 3 4 3 3 3 4 4
4 4 3 4 5 6 7 9 9 8 8 9 9 10 8 9 9 9 8 8 7 7 7 7 7 7 7 8 7 7 6 6 7 6 6 6 6 7 7 7 7 7 8 7 6 7 7 7 7 7 7 7 6 5 5 4 4 4 4 4 4 4 4 4 3 2 4 5 5 3 3 8 9 10 12 8 3 3 2 2 0 2 3 4 5
4 5 4 3 4 5 6 7 8 8 8 8 6 7 8 8 7 7 8 7 7 7 7 7 8 7 7 8 7 7 7 7 7 7 7 7 6 6 6 6 7 7 7 6 7 7 7 6 6 6 5 6 7 6 6 6 4 4 4 4 3 4 4 4 4 3 3 4 4 4 3 4 8 10 11 12 11 7 3 1 1 2 4 5 4
3 5 5 3 4 5 4 5 7 6 7 7 7 6 5 4 5 6 6 6 7 7 7 7 7 7 7 8 9 9 7 7 7 8 8 7 6 7 6 6 6 6 6 6 6 5 5 6 6 5 6 6 7 5 5 5 6 5 5 4 4 4 4 4 4 3 2 2 5 5 5 3 4 7 10 12 12 13 9 4 4 6 7 3 1
11 8 2 2 3 1 3 3 5 6 7 6 5 5 4 4 4 4 4 6 6 6 7 6 7 7 7 8 9 9 9 7 8 8 8 8 7 7 7 6 6 6 6 6 7 6 6 6 6 7 6 7 7 6 7 6 5 5 5 4 5 4 3 4 4 5 3 2 3 4 5 4 4 4 4 9 12 12 13 10 5 5 8 1 3
11 11 14 9 1 0 2 1 2 4 5 5 4 4 4 4 3 3 3 4 4 4 4 4 5 6 7 7 8 8 9 8 8 9 8 8 8 8 8 8 7 7 7 7 7 6 6 7 7 7 6 6 6 6 5 6 6 6 5 4 5 4 4 4 5 3 3 2 3 3 4 4 5 4 5 4 6 9 11 11 10 10 11 11 2
13 13 13 15 9 3 2 1 2 1 2 4 3 2 3 3 2 2 2 2 3 3 3 3 3 3 4 5 7 7 7 7 7 8 8 8 8 8 8 7 7 8 8 7 7 7 6 6 5 6 7 6 7 6 5 6 5 6 5 5 5 4 5 4 4 3 3 3 3 3 4 4 3 4 5 5 5 4 8 9 10 11 12 12 9
12 12 12 12 12 12 4 3 3 0 0 1 0 0 1 1 1 1 1 2 2 2 1 1 2 3 2 4 4 5 5 6 6 7 8 7 7 7 7 7 7 8 8 7 7 7 7 6 6 6 6 7 7 6 4 6 5 5 4 5 4 5 6 5 4 4 2 3 3 4 4 4 3 5 5 5 5 4 4 7 9 10 11 10 10
11 12 11 11 11 10 8 6 7 5 4 2 2 1 2 2 1 1 1 1 1 1 1 1 1 2 3 3 4 4 4 5 5 5 6 6 6 6 6 7 7 7 7 7 7 6 6 7 7 5 7 6 7 7 6 5 5 5 5 4 4 3 5 5 4 3 3 4 4 4 4 3 3 4 4 5 4 4 2 3 6 8 9 9 10
10 12 12 12 12 11 10 6 6 5 4 4 4 3 3 3 3 3 2 2 2 1 1 1 1 2 2 3 4 5 4 4 4 4 5 5 5 6 7 7 7 7 7 7 7 6 6 6 8 6 5 6 8 6 7 7 6 5 4 4 3 4 3 4 4 4 3 4 3 3 3 3 3 3 4 3 4 4 3 2 3 3 4 9 10
11 11 11 12 12 12 11 10 6 7 5 5 5 4 3 2 1 2 3 2 2 1 1 1 2 2 3 5 4 5 5 5 4 4 4 5 4 4 5 5 6 7 8 8 8 7 8 8 7 8 7 5 6 7 7 8 6 6 4 4 3 3 3 2 1 2 3 4 3 3 4 3 4 3 3 3 3 3 3 4 4 3 2 4 9
11 12 12 12 12 11 11 11 9 8 7 5 3 3 2 2 2 1 0 1 0 1 1 2 3 2 3 4 4 4 4 5 5 5 7 6 6 5 5 5 5 6 6 7 7 7 6 7 7 6 8 6 5 6 7 9 9 4 5 3 2 2 1 0 1 2 3 4 3 4 4 4 4 3 3 3 3 3 3 4 4 4 3 2 5
12 13 13 13 12 12 11 11 11 11 11 9 7 5 3 2 2 1 0 1 2 1 1 1 1 3 3 4 3 3 4 4 4 5 5 6 6 7 7 8 7 7 6 4 5 5 5 6 6 5 4 8 6 8 9 10 2 7 6 2 1 0 1 1 2 3 3 4 5 4 5 5 5 4 3 4 4 4 4 3 4 5 4 3 4
9 11 10 11 13 12 12 11 12 11 10 11 9 6 7 8 8 6 8 4 6 5 4 3 3 3 4 3 3 2 3 3 4 4 5 5 5 6 7 8 9 9 8 8 7 7 7 7 7 8 6 3 3 5 10 9 7 5 4 6 2 1 1 2 3 4 4 4 4 4 4 5 6 4 5 4 4 4 4 4 4 4 4 5 5
8 9 11 11 11 11 12 11 11 10 10 10 10 8 6 6 6 6 5 6 3 4 5 5 5 5 4 2 2 1 2 2 3 4 4 4 5 6 5 6 7 7 9 9 9 10 8 8 7 7 6 6 4 7 8 8 7 11 4 5 5 5 1 7 7 3 5 4 3 4 3 4 4 4 4 5 5 5 4 4 4 4 4 5 6
10 10 11 12 9 11 11 10 10 10 9 10 11 8 7 5 3 3 2 2 2 3 2 2 2 1 1 1 1 0 1 1 2 3 4 4 4 4 4 5 6 6 6 7 9 10 10 10 11 9 10 11 9 5 6 7 7 9 8 5 2 2 6 3 6 2 4 4 4 4 3 4 4 3 4 4 4 5 4 4 4 4 4 5 6
11 10 9 11 11 10 10 10 9 10 10 10 11 9 8 8 8 8 8 6 6 4 3 1 1 2 2 1 1 1 1 1 1 3 3 3 4 4 4 4 5 6 6 6 6 5 8 10 11 11 11 9 10 7 7 8 8 8 5 3 8 7 6 4 7 4 1 3 4 4 5 4 4 4 3 3 4 4 4 4 4 4 4 4 6
10 8 9 11 13 12 11 10 9 9 10 10 10 9 8 8 8 8 7 6 7 5 4 4 6 3 2 1 1 1 1 1 1 1 2 3 4 4 4 4 4 5 5 5 6 7 7 8 7 9 10 10 8 10 12 11 7 7 8 6 2 1 5 9 5 5 2 3 4 5 4 4 4 5 4 4 3 3 3 3 4 4 4 3 4
7 7 9 11 14 13 12 11 10 10 10 10 11 10 8 8 9 8 7 7 7 6 7 5 4 3 3 0 1 1 1 1 1 2 2 3 4 4 4 4 4 4 5 6 6 6 5 5 7 9 8 9 11 11 11 9 14 10 10 8 4 2 4 2 5 10 7 7 6 3 2 6 4 4 5 5 6 5 4 4 3 4 3 3 4
8 9 10 10 12 13 13 11 13 12 11 12 11 11 10 9 8 7 7 6 7 6 6 6 6 2 1 0 0 1 2 1 2 2 2 2 2 4 3 4 4 4 4 4 5 5 6 6 8 9 9 9 9 8 9 11 11 11 8 6 4 6 4 4 4 5 5 5 3 8 5 1 3 5 6 5 6 6 6 5 4 4 4 4 4
7 7 8 10 12 12 13 14 14 12 11 13 12 11 11 9 9 9 8 8 7 7 7 7 6 7 5 2 1 1 2 3 2 2 2 2 3 3 4 4 4 5 4 4 5 5 5 6 7 8 9 11 8 9 11 9 11 10 10 9 9 4 3 4 4 5 1 4 8 9 9 11 10 8 6 7 7 6 6 6 5 5 5 5 5
7 8 11 12 12 12 12 14 12 11 12 12 12 12 11 10 9 9 8 8 8 7 7 7 7 7 6 6 5 2 1 2 3 3 3 3 3 3 4 4 4 4 5 4 5 6 7 6 6 6 8 10 9 9 8 6 8 10 10 9 12 12 13 10 10 7 7 4 3 5 6 10 11 5 9 8 8 7 7 7 7 7 6 6 6
Wind_Direction
211 137 145 154 154 158 160 166 164 166 164 165 164 161 156 155 157 157 155 153 152 153 149 148 147 143 141 140 138 137 138 138 138 134 128 122 121 122 118 115 112 112 106 101 108 108 104 91 87 82 80 80 75 72 71 65 60 57 54 50 48 49 49 45 41 30 27 27 61 80 88 87 77 70 62 58 55 48 37 62 72 63 61 65 68
172 129 145 155 153 158 161 167 166 168 167 168 168 166 164 162 160 162 158 161 160 157 155 155 151 149 146 143 138 138 140 142 142 137 134 128 120 120 114 119 122 115 119 115 115 108 100 92 85 83 79 75 72 74 72 69 65 61 57 54 48 45 42 38 31 23 15 11 16 66 72 88 80 72 64 60 56 53 47 57 70 68 68 68 66
144 127 143 157 154 158 161 167 168 170 170 172 171 169 169 169 166 163 165 164 164 160 160 159 156 153 149 143 142 140 142 144 142 141 140 133 128 124 128 120 117 130 137 138 108 94 94 98 93 80 75 76 72 73 74 72 69 65 61 55 52 48 41 33 24 10 14 6 2 31 78 84 86 76 71 64 60 58 55 58 67 66 68 70 66
143 129 144 156 155 159 161 167 168 171 172 173 172 171 172 169 173 167 171 172 167 167 164 163 160 156 152 149 148 146 145 146 148 146 142 142 144 133 123 124 145 159 128 116 112 110 107 94 84 82 78 77 81 76 76 74 71 66 62 56 50 45 43 33 19 4 353 2 351 332 349 85 71 82 77 70 66 61 61 63 66 70 70 67 66
160 130 141 155 159 162 164 162 169 172 173 171 173 171 174 175 175 175 173 175 173 169 170 166 164 163 159 157 155 153 152 151 148 150 146 146 147 140 131 147 181 125 129 119 113 106 97 89 86 85 83 83 84 85 81 78 73 69 62 57 51 42 34 31 15 358 342 344 325 305 206 112 92 93 89 82 75 70 68 66 69 71 69 65 64
166 127 141 156 161 167 166 160 169 171 171 169 174 172 175 171 173 177 176 179 176 172 174 172 172 171 167 166 164 164 161 157 156 154 144 139 144 146 148 165 157 128 131 124 113 112 103 92 83 81 87 87 87 83 78 74 71 69 65 60 52 48 36 21 11 351 340 332 323 357 158 131 114 92 95 96 92 85 76 68 65 62 63 67 63
169 125 146 159 160 168 169 163 168 171 171 169 173 175 175 175 175 178 179 182 179 178 176 180 179 180 176 176 176 175 166 163 158 148 150 145 146 149 160 159 149 136 123 126 123 105 100 89 87 83 78 85 84 81 78 72 67 60 60 56 52 46 42 24 2 347 335 329 321 355 44 118 117 123 111 87 70 71 73 72 70 66 59 68 70
148 129 150 159 164 167 169 166 168 171 171 169 170 173 178 177 177 180 183 186 185 186 185 187 186 187 186 185 181 177 169 167 155 155 149 147 141 141 145 147 141 130 126 121 110 100 92 94 99 95 89 86 88 82 79 76 68 64 56 51 49 44 36 21 358 348 326 317 344 16 8 51 92 96 92 70 71 60 51 64 70 66 60 73 76
139 162 143 160 163 163 171 168 169 172 174 170 169 173 179 181 180 181 185 190 190 194 191 193 193 193 193 193 187 174 174 169 158 152 146 140 138 137 134 134 132 128 122 120 114 102 92 100 110 111 103 84 83 77 74 71 68 65 59 54 48 39 28 15 356 338 322 345 18 11 8 18 60 80 81 81 70 70 59 55 43 66 66 61 71
143 195 144 158 154 163 171 172 173 174 175 173 169 174 181 182 183 185 186 188 195 195 196 198 197 198 197 202 188 177 173 168 158 155 152 148 140 134 132 135 132 133 132 128 126 116 125 117 110 104 94 93 81 77 70 66 62 56 59 54 49 39 24 9 349 325 359 14 18 8 354 23 87 98 98 83 71 66 67 68 75 70 89 86 86
148 187 145 162 147 164 171 175 176 179 178 174 173 174 180 184 186 187 189 190 192 198 201 202 201 203 204 200 196 183 172 174 167 161 156 150 146 137 132 137 133 141 141 149 137 135 124 146 100 85 112 99 92 82 71 64 61 60 59 56 49 39 26 3 347 25 11 30 23 352 344 59 40 62 84 75 72 67 73 67 59 85 91 105 99
149 176 175 142 153 164 170 176 179 181 182 179 178 178 181 185 187 190 190 191 194 197 202 206 206 205 207 198 195 186 180 180 170 152 161 163 157 124 80 177 155 120 71 344 201 164 198 128 99 96 87 99 89 84 78 74 71 66 60 56 50 42 21 359 9 29 29 26 15 343 9 57 38 24 69 80 68 64 63 58 52 50 68 82 99
151 171 151 115 156 166 170 173 177 182 186 182 183 184 185 189 190 193 194 195 197 199 201 208 210 209 208 202 190 186 190 173 147 152 155 153 140 150 155 198 140 154 120 57 255 277 85 108 110 93 97 89 86 83 84 81 75 69 64 57 51 38 14 355 30 36 32 27 2 9 44 37 19 354 81 65 64 60 60 57 59 61 69 95 99
146 172 144 131 145 170 170 172 175 181 185 187 188 188 191 194 194 197 198 199 199 202 205 204 212 210 204 201 195 186 184 174 161 159 163 160 156 155 175 211 161 144 131 146 141 136 143 113 97 101 102 91 84 83 82 79 72 68 65 60 44 29 7 340 44 44 31 24 1 39 49 30 6 3 105 75 67 65 61 57 58 58 62 72 85
155 165 154 128 144 168 171 171 179 179 184 189 190 193 195 195 200 202 202 200 201 202 205 205 207 208 203 197 191 189 186 181 173 166 167 167 162 167 178 210 201 180 160 239 237 140 179 142 110 106 101 99 94 89 82 76 70 65 59 52 39 22 14 356 34 62 33 13 2 53 49 30 3 12 62 79 70 61 60 55 54 54 55 60 61
160 159 138 140 144 157 169 178 177 182 184 188 191 192 195 198 200 204 207 205 205 207 206 206 204 204 198 194 193 190 187 183 183 174 168 166 168 172 178 209 204 161 196 210 221 201 182 137 115 104 107 108 104 99 89 79 71 63 57 50 35 24 5 4 37 47 37 16 9 51 38 16 356 19 53 87 76 67 57 42 47 46 53 51 50
162 145 147 179 150 158 171 176 183 182 186 192 191 192 193 199 199 201 207 209 208 211 210 207 203 200 191 190 190 188 183 178 164 167 170 169 173 176 175 197 217 206 191 181 196 201 178 165 126 109 120 116 107 101 92 82 73 65 56 48 37 22 9 10 55 38 36 9 47 45 35 9 352 34 44 62 80 69 42 54 30 30 34 34 33
175 156 183 185 176 156 172 174 178 183 187 191 197 195 194 196 197 200 204 209 209 211 212 208 203 199 191 188 190 180 173 170 164 172 172 165 169 168 177 194 206 200 187 185 194 194 182 165 134 147 135 123 109 94 84 78 71 62 52 44 37 17 11 10 54 39 9 20 58 50 24 355 14 43 50 44 53 56 76 37 28 19 31 36 28
179 171 187 195 190 181 169 174 179 184 190 189 190 198 197 196 195 197 200 204 202 206 211 207 200 197 191 190 185 169 168 170 165 167 161 156 155 150 163 185 210 195 190 183 192 197 173 161 152 166 145 132 113 99 87 77 69 59 52 42 20 9 1 28 22 13 30 31 51 42 10 3 20 39 47 54 46 40 29 43 33 14 15 8 25
231 187 193 196 196 194 177 177 179 186 191 190 192 190 199 198 197 197 198 197 196 199 205 200 196 196 190 184 171 158 159 164 162 155 154 150 146 140 145 179 211 199 190 188 191 189 174 160 175 166 148 137 123 107 100 93 80 70 53 30 360 360 6 34 14 29 49 51 58 33 2 9 19 34 46 50 50 43 26 24 45 26 13 16 15
195 215 200 197 199 192 198 175 183 187 190 193 193 195 193 194 198 200 196 193 190 192 198 192 189 186 178 177 158 151 150 146 155 146 143 146 149 145 145 167 200 219 176 179 193 185 171 174 177 170 149 133 114 109 107 102 104 98 84 355 8 332 23 17 29 40 41 59 52 23 12 11 16 27 41 43 41 39 32 12 9 14 38 16 9
192 199 209 203 191 202 201 190 179 187 189 192 196 194 189 187 193 192 194 193 189 185 189 186 184 176 167 159 165 164 156 145 161 142 147 146 148 145 151 162 198 190 174 181 190 181 173 180 177 169 145 121 112 93 85 104 121 152 206 246 320 306 41 34 55 44 44 54 53 19 18 16 14 21 37 39 32 33 22 20 3 360 52 31 17
196 193 201 204 198 198 197 202 191 185 187 191 196 193 185 179 190 191 190 193 190 186 186 190 180 175 167 168 174 172 164 153 166 154 152 149 149 146 152 162 182 167 177 175 180 176 178 183 176 167 136 137 136 137 135 148 183 201 221 241 127 74 61 44 66 73 62 62 46 21 17 20 14 8 40 43 47 30 23 33 33 35 38 67 103
200 191 193 195 196 193 198 199 197 187 185 189 192 188 184 175 185 190 189 191 196 191 194 190 186 180 169 172 180 175 172 159 170 157 148 145 150 149 152 157 159 164 159 154 171 172 179 181 175 148 136 156 193 159 157 177 189 203 214 144 98 96 76 76 82 100 90 67 42 22 16 17 13 359 22 90 74 43 20 355 43 64 84 97 93
201 184 179 191 194 196 194 199 195 189 186 188 187 191 185 166 185 187 190 189 195 195 198 198 192 190 172 176 181 183 174 167 154 151 150 144 150 151 152 152 141 153 149 140 139 147 150 124 126 123 162 193 231 169 163 182 191 181 138 118 131 126 100 79 67 94 96 81 47 27 16 7 7 357 354 91 113 68 294 156 157 135 102 97 79
174 177 188 188 193 194 192 192 194 193 190 188 188 187 186 184 177 187 188 192 189 196 197 201 202 196 185 175 177 183 181 155 145 153 153 146 152 157 160 156 149 157 155 145 146 141 135 130 136 168 201 210 204 164 167 162 156 108 94 93 116 102 97 96 94 78 101 93 58 35 17 3 1 355 303 179 146 162 157 148 179 142 126 103 111
198 195 181 188 186 192 193 188 193 192 192 189 186 183 191 192 182 177 184 194 193 191 198 197 201 199 192 176 175 185 186 158 152 155 161 154 156 159 165 165 160 158 168 149 157 155 151 148 158 183 217 188 154 100 74 84 102 105 103 92 85 98 101 91 76 82 107 108 79 38 17 6 357 347 325 193 181 168 166 168 163 155 122 146 133
194 207 186 179 171 189 191 188 194 194 193 188 190 191 189 189 192 188 185 186 188 190 186 189 189 196 193 187 178 181 181 166 156 156 171 159 159 158 161 168 168 159 172 157 157 158 168 162 166 191 191 141 125 124 117 108 104 112 114 110 102 89 93 97 86 60 108 124 97 37 19 11 0 344 337 243 197 185 182 189 150 152 172 152 149
222 209 197 180 178 183 186 192 191 194 194 190 197 192 186 189 189 194 193 182 186 185 181 179 184 187 190 187 176 178 176 169 159 160 162 166 160 159 164 174 167 159 164 184 164 162 174 164 168 180 150 140 139 153 155 152 144 131 121 123 107 99 90 90 86 63 60 104 102 54 30 18 6 360 348 322 223 197 193 160 169 164 160 167 155
232 229 194 202 189 177 186 191 191 193 191 190 198 196 191 188 191 194 188 182 188 183 176 178 182 181 186 182 176 174 171 174 155 154 162 174 169 165 167 173 167 159 161 184 167 154 166 160 162 157 150 149 153 174 148 159 133 125 123 124 118 125 112 105 108 115 94 104 103 83 43 29 21 18 6 355 12 258 207 168 174 161 170 173 172
258 266 228 206 200 177 189 191 194 190 188 194 197 201 195 194 190 188 187 187 183 178 177 176 178 181 179 175 171 173 163 168 150 155 163 172 174 170 171 166 161 163 164 169 160 156 162 164 162 160 159 153 165 162 143 133 123 100 117 117 123 99 103 109 97 87 95 97 112 108 68 42 37 30 27 22 54 22 79 90 95 146 204 189 183
244 255 246 221 184 199 193 189 191 186 186 197 195 205 206 200 191 187 192 187 176 181 179 176 180 181 174 173 169 173 162 169 151 161 164 173 175 169 169 162 168 161 162 157 155 159 163 163 158 157 156 147 146 154 144 136 136 137 116 111 104 111 111 110 107 83 88 111 126 140 118 77 49 42 36 31 37 34 27 117 221 333 256 201 186
240 225 222 207 205 212 201 196 185 180 188 192 192 202 206 201 190 193 192 188 184 182 185 182 178 178 171 168 172 173 171 165 161 162 163 168 169 168 171 169 164 154 153 149 148 154 154 154 162 151 148 132 136 156 144 140 137 140 130 142 108 104 117 112 111 102 125 136 141 140 141 123 85 49 42 37 30 29 29 57 39 11 318 196 319
357 359 351 191 216 204 194 172 180 172 186 192 185 186 198 207 199 190 188 185 188 189 193 184 176 174 170 170 171 173 177 168 158 162 161 165 171 171 169 165 157 150 146 145 155 159 155 150 161 146 152 142 150 160 143 137 140 137 128 137 121 133 120 114 127 135 151 145 131 134 147 146 110 88 62 39 31 27 33 35 41 30 8 78 153
10 5 0 321 210 146 114 130 154 175 168 190 187 178 184 194 189 191 185 179 184 185 193 190 180 178 167 170 173 176 177 170 162 160 164 165 169 168 170 170 156 151 150 158 154 160 149 159 158 151 149 144 148 163 152 149 145 141 139 136 128 128 110 110 111 136 140 146 118 138 137 126 130 127 100 76 32 26 33 39 40 39 30 16 71
16 8 1 1 339 23 105 78 98 117 146 186 186 154 160 176 173 169 167 172 170 186 190 199 190 181 164 160 176 176 177 172 162 160 165 170 168 169 174 164 158 151 153 157 156 166 162 160 177 154 154 163 153 173 159 145 144 138 145 135 131 131 127 125 138 146 165 123 129 103 77 75 93 105 112 96 81 35 38 40 42 37 29 21 7
15 10 10 1 4 360 8 93 67 53 27 109 96 74 89 116 130 125 148 138 157 163 170 173 168 170 151 155 176 176 181 178 164 164 166 168 167 166 170 165 157 155 155 162 166 170 160 164 180 181 166 159 159 164 157 142 136 133 124 118 136 132 131 143 153 160 142 127 119 98 95 96 99 74 113 121 109 81 48 50 44 39 26 21 25
14 13 10 11 5 0 5 39 30 32 26 54 95 50 34 47 42 61 75 92 111 97 99 116 155 154 137 147 168 178 186 185 168 163 167 168 163 162 165 162 156 155 156 162 177 169 166 163 176 186 172 154 161 160 153 135 125 116 106 114 131 110 134 137 136 145 124 135 124 125 138 140 100 93 92 121 132 129 104 65 56 39 22 18 29
13 11 15 16 11 6 2 19 44 7 27 41 62 58 41 33 36 39 44 47 70 65 73 78 91 90 113 126 149 160 176 182 172 159 161 166 162 162 165 166 159 159 158 164 174 175 171 171 170 182 175 166 160 162 149 135 123 111 109 113 94 104 108 113 136 164 155 146 136 140 126 123 109 107 115 103 125 143 160 171 85 63 25 29 34
15 13 20 22 18 13 6 5 17 20 30 38 58 47 45 53 41 19 25 17 32 50 27 78 92 100 110 114 129 139 158 175 171 163 157 158 162 170 159 160 165 160 165 167 178 180 179 175 177 174 172 158 152 147 132 122 98 95 91 61 69 76 88 131 168 146 124 117 129 123 124 129 111 121 117 123 120 112 115 120 117 114 74 43 47
21 18 23 24 21 16 12 8 360 16 23 36 55 68 59 26 33 57 52 112 64 49 49 19 40 51 76 88 117 123 157 172 174 163 175 166 170 161 143 164 162 167 173 185 178 183 180 175 171 174 164 158 162 144 144 127 122 80 61 76 53 46 50 357 131 132 141 159 171 168 167 139 150 147 167 133 132 148 155 146 148 148 155 151 64
19 21 25 23 18 16 18 14 14 14 17 19 21 32 38 48 89 48 124 99 102 92 48 39 30 54 68 87 116 124 154 172 176 177 181 174 174 171 160 166 165 175 181 173 179 182 175 177 163 171 191 164 171 161 160 123 157 159 143 130 30 10 244 286 210 214 183 186 188 171 171 158 162 172 158 137 158 163 168 166 148 159 180 132 87
18 27 25 31 26 21 20 26 22 16 16 13 20 19 30 34 47 28 33 11 40 50 56 40 61 62 56 63 91 119 131 157 173 176 183 191 186 180 178 171 175 170 167 177 179 185 187 183 179 176 182 193 146 175 169 174 149 125 116 98 191 112 313 315 268 214 194 207 185 173 176 163 173 169 167 158 171 185 176 161 158 162 162 121 114
18 27 33 38 35 27 24 27 24 17 15 13 10 2 39 48 44 46 54 72 58 31 44 35 32 43 41 28 32 71 116 148 172 187 190 199 197 196 186 177 186 179 177 178 180 187 183 185 183 188 167 172 184 195 196 181 143 137 165 193 180 136 251 241 204 228 187 197 179 190 158 170 175 182 168 173 184 182 175 164 165 175 162 138 137
18 26 33 38 37 31 31 29 25 21 15 16 13 4 19 26 37 38 50 57 59 77 68 59 81 57 68 86 274 93 133 161 177 198 198 213 218 211 197 187 185 191 183 188 191 194 190 188 185 179 183 184 193 183 210 205 195 194 145 124 105 208 213 192 137 251 179 190 208 189 186 173 190 199 190 194 183 178 174 171 180 176 172 153 139
23 17 29 44 42 37 34 32 28 24 19 16 18 17 21 31 27 26 19 13 10 21 16 32 156 165 205 215 179 168 218 221 181 202 218 225 234 233 224 191 193 193 195 200 203 196 198 196 194 188 191 198 182 166 192 225 213 220 222 196 156 173 169 171 129 224 163 210 198 204 191 188 186 201 227 199 175 178 174 183 187 188 179 156 148
17 9 26 41 44 42 38 35 31 28 21 17 20 22 26 24 30 27 25 26 17 0 6 37 40 24 68 72 158 154 203 200 262 211 218 234 242 248 243 229 204 198 202 203 206 207 209 208 199 198 199 193 166 184 192 197 216 250 236 227 150 149 148 133 196 98 186 278 219 206 215 202 190 194 210 199 183 177 200 190 197 192 191 170 145
6 11 31 38 42 41 39 36 34 31 26 20 22 22 26 26 31 28 26 26 18 1 360 4 34 61 38 351 107 186 209 218 247 271 240 223 229 250 251 251 241 222 204 211 215 218 215 218 211 211 207 202 195 192 193 187 191 214 218 224 182 156 195 158 152 166 157 162 224 229 218 200 204 211 199 189 190 186 193 201 197 199 202 187 143
18 22 30 35 43 42 39 36 37 33 27 24 25 24 25 24 28 22 22 14 9 359 355 1 360 21 30 338 337 207 186 225 236 253 263 252 232 233 248 250 248 248 225 225 226 224 219 208 209 211 212 215 212 203 184 195 198 205 195 227 194 204 214 212 154 144 139 131 185 183 200 187 211 229 217 191 190 182 184 189 195 197 203 196 159
23 26 35 40 42 41 38 36 35 32 28 28 27 26 23 23 24 18 22 9 4 359 2 358 358 353 348 308 246 233 207 188 218 249 265 257 246 240 244 244 241 241 237 228 233 236 236 228 216 215 215 219 221 214 208 199 202 202 200 192 193 174 209 239 225 188 162 164 166 191 185 174 194 224 189 199 187 185 178 182 188 199 202 200 175
28 29 35 39 39 40 38 39 33 33 28 31 31 30 27 24 22 16 14 11 4 4 360 357 353 352 345 332 331 302 211 187 181 212 225 239 239 240 235 241 243 242 241 243 236 229 230 229 225 222 220 220 222 227 230 216 199 205 203 194 200 192 193 191 196 197 182 163 102 178 177 192 194 171 209 184 180 184 178 180 187 194 197 198 188